Location: Peterborough
(44.3091°N, 78.3197°W)
Time: 06:47:20
(UTC-05:00)

Explorer 11/Cluster Stage 4 - Pass Details

Date: 04 October 2023
Orbit: 465 x 1228 km, 28.8° (Epoch: 29 November)

Event Time Altitude Azimuth Distance (km) Brightness Sun altitude
Rises 20:03:45 0° 238° (WSW) 3,343 10.7 -14.2°
Reaches altitude 10° 20:06:44 10° 222° (SW) 2,552 9.7 -14.7°
Maximum altitude 20:11:10 20° 177° (S) 2,089 8.6 -15.5°
Enters shadow 20:15:00 13° 140° (SE) 2,641 8.8 -16.2°
